Providence, RI

2:58 AM EST on December 13, 2017 (GMT -0500)
Green State

Weather History for KPVD - January, 2013

Change the Weather History Date:

Sunday, January 20, 2013

  Actual Average Record
Temperature  
Mean Temperature 43 °F 29 °F  
Max Temperature 55 °F 37 °F 59 °F (1947)
Min Temperature 30 °F 21 °F -5 °F (1971)
Degree Days  
Heating Degree Days 22 36  
Month to date heating degree days 599 716  
Since 1 July heating degree days 2439 2743  
Cooling Degree Days 0 0  
Month to date cooling degree days 0 0  
Year to date cooling degree days 0 0  
Moisture  
Dew Point 25 °F    
Average Humidity 49    
Maximum Humidity 70    
Minimum Humidity 27    
Precipitation  
Precipitation 0.00 in 0.13 in 1.22 in (1995)
Month to date precipitation 0.96 2.51  
Year to date precipitation 0.96 2.51  
Snow  
Snow 0.00 in 0.30 in 10.40 in (1978)
Month to date snowfall 3.0 5.8  
Since 1 July snowfall 13.6 16.0  
Snow Depth 0.00 in    
Sea Level Pressure  
Sea Level Pressure 29.78 in    
Wind  
Wind Speed 15 mph (WSW)    
Max Wind Speed 33 mph    
Max Gust Speed 45 mph    
Visibility 10 miles    
Events      
T = Trace of Precipitation, MM = Missing Value Source: NWS Daily Summary

Daily Weather History Graph

Daily Weather History Graph

Search for Another Location

Airport or City:

Trip Planner

Search our weather history database for the weather conditions in past years. The results will help you decide how hot, cold, wet, or windy it might be!

Date:

Astronomy

Jan. 20, 2013 Rise Set
Actual Time 7:07 AM EST 4:46 PM EST
Civil Twilight 6:37 AM EST 5:16 PM EST
Nautical Twilight 6:03 AM EST 5:50 PM EST
Astronomical Twilight 5:30 AM EST 6:23 PM EST
Moon 11:46 AM EST (1/20) 1:36 AM EST (1/20)
Length of Visible Light 10h 39m
Length of Day
9h 38m
Waxing Gibbous, 66% of the Moon is Illuminated
Jan 20
Waxing Gibbous
Jan 26
Full
Feb 3
Last Quarter
Feb 10
New
Feb 17
First Quarter

Hourly Weather History & Observations

Time (EST) Temp. Windchill Dew Point Humidity Pressure Visibility Wind Dir Wind Speed Gust Speed Precip Events Conditions
12:51 AM 44.1 °F 37.4 °F 32.0 °F 63% 29.91 in 10.0 mi SW 13.8 mph 20.7 mph N/A   Mostly Cloudy
1:51 AM 44.6 °F 38.1 °F 33.8 °F 66% 29.88 in 10.0 mi SW 13.8 mph - N/A   Mostly Cloudy
2:51 AM 44.1 °F 38.1 °F 34.0 °F 68% 29.85 in 10.0 mi SW 11.5 mph - N/A   Clear
3:51 AM 43.0 °F 36.8 °F 34.0 °F 71% 29.82 in 10.0 mi SW 11.5 mph - N/A   Partly Cloudy
4:51 AM 42.1 °F 34.9 °F 33.1 °F 70% 29.79 in 10.0 mi SSW 13.8 mph 20.7 mph N/A   Scattered Clouds
5:51 AM 42.1 °F 35.7 °F 33.1 °F 70% 29.76 in 10.0 mi SSW 11.5 mph 19.6 mph N/A   Scattered Clouds
6:51 AM 42.1 °F 33.9 °F 32.0 °F 67% 29.73 in 10.0 mi SSW 17.3 mph 23.0 mph N/A   Partly Cloudy
7:51 AM 43.0 °F 35.1 °F 32.0 °F 65% 29.72 in 10.0 mi SSW 17.3 mph 23.0 mph N/A   Clear
8:51 AM 46.0 °F 39.9 °F 30.9 °F 56% 29.71 in 10.0 mi SW 13.8 mph - N/A   Clear
9:51 AM 50.0 °F - 30.0 °F 46% 29.71 in 10.0 mi SW 16.1 mph 24.2 mph N/A   Partly Cloudy
10:51 AM 53.1 °F - 28.0 °F 38% 29.66 in 10.0 mi SW 25.3 mph 41.4 mph N/A   Partly Cloudy
11:51 AM 54.0 °F - 27.0 °F 35% 29.62 in 10.0 mi WSW 15.0 mph 35.7 mph N/A   Partly Cloudy
12:51 PM 54.0 °F - 26.1 °F 34% 29.61 in 10.0 mi WSW 26.5 mph 41.4 mph N/A   Partly Cloudy
1:51 PM 53.1 °F - 26.1 °F 35% 29.61 in 10.0 mi WSW 20.7 mph 40.3 mph N/A   Mostly Cloudy
2:51 PM 52.0 °F - 26.1 °F 37% 29.64 in 10.0 mi WSW 19.6 mph 26.5 mph N/A   Mostly Cloudy
3:51 PM 50.0 °F - 25.0 °F 38% 29.67 in 10.0 mi West 15.0 mph 20.7 mph N/A   Mostly Cloudy
4:51 PM 46.0 °F 43.1 °F 27.0 °F 47% 29.70 in 10.0 mi West 5.8 mph - N/A   Mostly Cloudy
5:51 PM 44.6 °F 38.1 °F 12.2 °F 27% 29.75 in 10.0 mi NW 13.8 mph 27.6 mph N/A   Mostly Cloudy
6:51 PM 39.9 °F 32.5 °F 15.1 °F 36% 29.82 in 10.0 mi NW 12.7 mph 25.3 mph N/A   Scattered Clouds
7:51 PM 36.0 °F 26.3 °F 15.1 °F 43% 29.84 in 10.0 mi WNW 16.1 mph 21.9 mph N/A   Scattered Clouds
8:51 PM 34.0 °F 23.8 °F 14.0 °F 44% 29.89 in 10.0 mi WNW 16.1 mph 27.6 mph N/A   Scattered Clouds
9:51 PM 32.0 °F 23.6 °F 12.2 °F 44% 29.92 in 10.0 mi WNW 10.4 mph - N/A   Partly Cloudy
10:51 PM 30.9 °F 21.2 °F 9.0 °F 40% 29.94 in 10.0 mi WNW 12.7 mph 24.2 mph N/A   Clear
11:51 PM 30.0 °F 20.0 °F 6.1 °F 36% 29.95 in 10.0 mi WNW 12.7 mph 25.3 mph N/A   Clear